Location: Orange Harbor Mobile Home Park
(26.6923°N, 81.7937°W)
Time: 08:08:58
(UTC+00:00)

FUSE - Pass Details

Date: 19 September 2020
Orbit: 742 x 756 km, 25.0° (Epoch: 29 October)

Event Time Altitude Azimuth Distance (km) Brightness Sun altitude
Exits shadow 09:40:53 41° 216° (SW) 1,082 4.4 -21.6°
Maximum altitude 09:41:33 43° 196° (SSW) 1,049 4.4 -21.4°
Drops below altitude 10° 09:46:37 10° 126° (SE) 2,266 7.0 -20.3°
Sets 09:49:12 0° 119° (ESE) 3,190 8.0 -19.8°
